NKS2504 KTPA-KMSY

Flight info

Callsign NKS2504
Flight time 1h 31m
Altitude 36000
Route DORMR3 FROOT ROZZI Y280 REDFN HRV
Aircraft A320/M-SDE3FGHIRWY/LB1

Departure

Time 2026-05-03 23:04
Airport Tampa International Airport (KTPA)

Arrival

Time 2026-05-04 00:35
Airport Louis Armstrong New Orleans International Airport (KMSY)
Time Latitude Longitude Altitude Speed Heading
2026-05-03 22:31 27.98570 -82.52922 40 ft 12 kts 248°
2026-05-03 22:31 27.98514 -82.52950 41 ft 9 kts 191°
2026-05-03 22:31 27.98458 -82.52956 41 ft 0 kts 181°
2026-05-03 22:32 27.98435 -82.52956 41 ft 11 kts 181°
2026-05-03 22:32 27.98340 -82.52959 41 ft 17 kts 181°
2026-05-03 22:33 27.98185 -82.52962 38 ft 28 kts 179°
2026-05-03 22:33 27.98005 -82.52969 41 ft 26 kts 182°
2026-05-03 22:33 27.97864 -82.52975 41 ft 15 kts 181°
2026-05-03 22:33 27.97752 -82.52979 41 ft 19 kts 185°
2026-05-03 22:34 27.97624 -82.52985 41 ft 22 kts 180°
2026-05-03 22:34 27.97503 -82.52987 40 ft 3 kts 178°
2026-05-03 22:35 27.97502 -82.52987 42 ft 1 kts 179°
2026-05-03 22:35 27.97479 -82.52988 42 ft 8 kts 181°
2026-05-03 22:35 27.97409 -82.52989 41 ft 13 kts 180°
2026-05-03 22:35 27.97312 -82.52992 41 ft 18 kts 183°
2026-05-03 22:36 27.97209 -82.52996 41 ft 14 kts 182°
2026-05-03 22:36 27.97102 -82.53000 38 ft 17 kts 182°
2026-05-03 22:36 27.96993 -82.53004 38 ft 14 kts 181°
2026-05-03 22:36 27.96913 -82.53006 40 ft 11 kts 181°
2026-05-03 22:37 27.96837 -82.53010 41 ft 12 kts 182°
2026-05-03 22:37 27.96749 -82.53013 41 ft 14 kts 181°
2026-05-03 22:37 27.96657 -82.53015 41 ft 12 kts 180°
2026-05-03 22:37 27.96560 -82.53018 41 ft 17 kts 180°
2026-05-03 22:38 27.96459 -82.52986 38 ft 17 kts 124°
2026-05-03 22:38 27.96455 -82.52931 37 ft 0 kts 61°
2026-05-03 22:38 27.96463 -82.52915 35 ft 7 kts 55°
2026-05-03 22:39 27.96490 -82.52904 38 ft 0 kts
2026-05-03 22:39 27.96496 -82.52903 38 ft 2 kts
2026-05-03 22:39 27.96502 -82.52901 37 ft 1 kts 14°
2026-05-03 22:39 27.96771 -82.52882 38 ft 74 kts
2026-05-03 22:40 27.97492 -82.52858 39 ft 130 kts
2026-05-03 22:40 27.98012 -82.52807 41 ft 46 kts
2026-05-03 22:40 27.98284 -82.52822 41 ft 30 kts 357°
2026-05-03 22:40 27.98429 -82.52829 39 ft 19 kts
2026-05-03 22:41 27.98556 -82.52850 40 ft 13 kts 305°
2026-05-03 22:41 27.98566 -82.52937 41 ft 10 kts 226°
2026-05-03 22:41 27.98527 -82.52949 41 ft 0 kts 188°
2026-05-03 22:50 27.98526 -82.52949 41 ft 0 kts 188°
2026-05-03 22:50 27.98480 -82.52953 41 ft 11 kts 182°
2026-05-03 22:51 27.98374 -82.52957 41 ft 17 kts 182°
2026-05-03 22:51 27.98263 -82.52960 41 ft 17 kts 181°
2026-05-03 22:51 27.98146 -82.52968 40 ft 16 kts 172°
2026-05-03 22:51 27.98010 -82.52967 41 ft 19 kts 188°
2026-05-03 22:52 27.97962 -82.52970 41 ft 0 kts 181°
2026-05-03 22:52 27.97931 -82.52971 41 ft 12 kts 182°
2026-05-03 22:52 27.97886 -82.52974 41 ft 15 kts 184°
2026-05-03 22:52 27.97819 -82.52975 40 ft 0 kts 178°
2026-05-03 22:53 27.97766 -82.52978 42 ft 19 kts 182°
2026-05-03 22:53 27.97618 -82.52985 42 ft 27 kts 183°
2026-05-03 22:53 27.97442 -82.52990 41 ft 24 kts 183°
2026-05-03 22:54 27.97291 -82.52993 41 ft 21 kts 181°
2026-05-03 22:54 27.97164 -82.52997 39 ft 19 kts 181°
2026-05-03 22:54 27.97033 -82.53003 37 ft 21 kts 182°
2026-05-03 22:54 27.96914 -82.53008 38 ft 12 kts 182°
2026-05-03 22:55 27.96845 -82.53009 37 ft 6 kts 182°
2026-05-03 22:55 27.96832 -82.53010 39 ft 0 kts 182°
2026-05-03 22:55 27.96829 -82.53010 39 ft 1 kts 182°
2026-05-03 22:56 27.96774 -82.53011 39 ft 14 kts 180°
2026-05-03 22:56 27.96663 -82.53015 40 ft 19 kts 182°
2026-05-03 22:56 27.96560 -82.53019 39 ft 12 kts 180°
2026-05-03 22:56 27.96524 -82.53020 39 ft 11 kts 182°
2026-05-03 22:57 27.96486 -82.53015 36 ft 8 kts 163°
2026-05-03 22:57 27.96465 -82.52999 38 ft 0 kts 135°
2026-05-03 23:01 27.96460 -82.52990 40 ft 6 kts 121°
2026-05-03 23:02 27.96454 -82.52933 38 ft 7 kts 83°
2026-05-03 23:02 27.96477 -82.52903 37 ft 0 kts 17°
2026-05-03 23:03 27.96636 -82.52890 37 ft 60 kts
2026-05-03 23:03 27.97235 -82.52869 39 ft 118 kts
2026-05-03 23:03 27.98213 -82.52835 56 ft 161 kts
2026-05-03 23:03 27.99032 -82.52809 423 ft 162 kts
2026-05-03 23:04 28.00047 -82.52794 1093 ft 163 kts 353°
2026-05-03 23:04 28.01190 -82.52783 1566 ft 177 kts 354°
2026-05-03 23:04 28.02449 -82.52803 2066 ft 188 kts 351°
2026-05-03 23:04 28.03788 -82.52921 2596 ft 197 kts 347°
2026-05-03 23:05 28.05024 -82.53113 3142 ft 203 kts 343°
2026-05-03 23:05 28.06244 -82.53750 3500 ft 210 kts 308°
2026-05-03 23:05 28.06899 -82.55200 3787 ft 224 kts 276°
2026-05-03 23:05 28.06758 -82.56843 4209 ft 241 kts 248°
2026-05-03 23:06 28.06592 -82.57238 4352 ft 245 kts 240°
2026-05-03 23:06 28.05837 -82.58262 4685 ft 260 kts 222°
2026-05-03 23:06 28.04549 -82.59444 5571 ft 258 kts 225°
2026-05-03 23:06 28.03387 -82.60748 6478 ft 258 kts 229°
2026-05-03 23:07 28.02996 -82.61230 6760 ft 258 kts 230°
2026-05-03 23:07 28.01453 -82.63209 7882 ft 260 kts 231°
2026-05-03 23:07 27.99850 -82.65259 9001 ft 264 kts 231°
2026-05-03 23:07 27.98608 -82.66811 9721 ft 269 kts 230°
2026-05-03 23:08 27.97370 -82.68327 9955 ft 269 kts 230°
2026-05-03 23:08 27.96077 -82.69889 10004 ft 282 kts 230°
2026-05-03 23:08 27.94766 -82.71469 10017 ft 310 kts 229°
2026-05-03 23:08 27.93301 -82.73226 10018 ft 321 kts 229°
2026-05-03 23:09 27.91778 -82.75038 10014 ft 326 kts 229°
2026-05-03 23:09 27.90231 -82.76870 10478 ft 334 kts 229°
2026-05-03 23:09 27.88750 -82.78621 11060 ft 338 kts 229°
2026-05-03 23:09 27.87666 -82.79902 11490 ft 340 kts 229°
2026-05-03 23:10 27.85466 -82.82504 12411 ft 343 kts 229°
2026-05-03 23:10 27.83835 -82.84436 13099 ft 346 kts 229°
2026-05-03 23:10 27.82132 -82.86453 13796 ft 348 kts 229°
2026-05-03 23:10 27.80522 -82.88357 14374 ft 351 kts 229°
2026-05-03 23:11 27.78944 -82.90227 14945 ft 352 kts 229°
2026-05-03 23:11 27.77235 -82.92252 15548 ft 353 kts 229°
2026-05-03 23:11 27.75760 -82.94000 16089 ft 355 kts 229°
2026-05-03 23:11 27.74436 -82.95567 16559 ft 355 kts 229°
2026-05-03 23:12 27.73671 -82.96487 16745 ft 354 kts 231°
2026-05-03 23:12 27.71684 -82.98900 17363 ft 358 kts 229°
2026-05-03 23:12 27.69994 -83.00894 17957 ft 359 kts 229°
2026-05-03 23:12 27.68851 -83.02254 18346 ft 360 kts 232°
2026-05-03 23:13 27.67411 -83.04548 18863 ft 359 kts 243°
2026-05-03 23:13 27.66256 -83.07985 19517 ft 362 kts 257°
2026-05-03 23:13 27.65923 -83.10811 20018 ft 365 kts 262°
2026-05-03 23:13 27.65671 -83.13673 20532 ft 368 kts 262°
2026-05-03 23:14 27.65413 -83.16551 21019 ft 370 kts 262°
2026-05-03 23:14 27.65146 -83.19439 21496 ft 372 kts 262°
2026-05-03 23:14 27.64874 -83.22353 21953 ft 375 kts 262°
2026-05-03 23:14 27.64601 -83.25282 22408 ft 377 kts 262°
2026-05-03 23:15 27.64325 -83.28234 22867 ft 379 kts 262°
2026-05-03 23:15 27.64142 -83.30196 23165 ft 380 kts 262°
2026-05-03 23:15 27.63776 -83.34116 23720 ft 383 kts 262°
2026-05-03 23:15 27.63497 -83.37135 24094 ft 385 kts 262°
2026-05-03 23:16 27.63217 -83.40141 24474 ft 386 kts 262°
2026-05-03 23:16 27.62940 -83.43082 24847 ft 387 kts 262°
2026-05-03 23:16 27.62665 -83.45983 25221 ft 388 kts 262°
2026-05-03 23:16 27.62383 -83.48940 25598 ft 390 kts 262°
2026-05-03 23:17 27.62187 -83.50984 25865 ft 390 kts 262°
2026-05-03 23:17 27.61902 -83.53993 26258 ft 392 kts 262°
2026-05-03 23:17 27.61614 -83.57052 26647 ft 393 kts 262°
2026-05-03 23:17 27.61323 -83.60119 27028 ft 394 kts 262°
2026-05-03 23:18 27.61033 -83.63132 27401 ft 396 kts 262°
2026-05-03 23:18 27.60752 -83.66025 27754 ft 397 kts 262°
2026-05-03 23:18 27.60451 -83.69117 28152 ft 398 kts 262°
2026-05-03 23:18 27.60153 -83.72211 28697 ft 395 kts 262°
2026-05-03 23:19 27.59855 -83.75284 29283 ft 392 kts 262°
2026-05-03 23:19 27.59564 -83.78286 29861 ft 390 kts 262°
2026-05-03 23:19 27.59277 -83.81247 30383 ft 387 kts 262°
2026-05-03 23:19 27.58998 -83.84126 30856 ft 385 kts 262°
2026-05-03 23:20 27.58798 -83.86185 31191 ft 383 kts 262°
2026-05-03 23:20 27.58410 -83.90172 31858 ft 380 kts 262°
2026-05-03 23:20 27.58127 -83.93079 32357 ft 377 kts 262°
2026-05-03 23:20 27.57934 -83.95059 32698 ft 375 kts 262°
2026-05-03 23:21 27.57570 -83.98800 33342 ft 372 kts 261°
2026-05-03 23:21 27.57283 -84.01743 33868 ft 369 kts 261°
2026-05-03 23:21 27.57002 -84.04610 34342 ft 367 kts 261°
2026-05-03 23:21 27.56716 -84.07460 34771 ft 365 kts 261°
2026-05-03 23:22 27.56146 -84.13099 35580 ft 361 kts 261°
2026-05-03 23:22 27.55971 -84.14967 35839 ft 360 kts 264°
2026-05-03 23:22 27.56143 -84.18708 36074 ft 366 kts 275°
2026-05-03 23:23 27.57085 -84.24403 36098 ft 371 kts 275°
2026-05-03 23:23 27.58023 -84.30123 36098 ft 371 kts 275°
2026-05-03 23:24 27.58952 -84.35837 36101 ft 371 kts 275°
2026-05-03 23:24 27.59876 -84.41515 36092 ft 371 kts 275°
2026-05-03 23:25 27.60798 -84.47227 36109 ft 370 kts 275°
2026-05-03 23:25 27.61718 -84.52944 36112 ft 370 kts 275°
2026-05-03 23:26 27.62616 -84.58535 36119 ft 370 kts 275°
2026-05-03 23:26 27.63500 -84.64091 36128 ft 370 kts 275°
2026-05-03 23:27 27.64408 -84.69804 36129 ft 370 kts 275°
2026-05-03 23:27 27.65167 -84.74550 36131 ft 370 kts 275°
2026-05-03 23:28 27.66230 -84.81226 36137 ft 370 kts 275°
2026-05-03 23:28 27.67124 -84.86895 36133 ft 369 kts 275°
2026-05-03 23:29 27.67988 -84.92363 36138 ft 369 kts 275°
2026-05-03 23:29 27.68889 -84.98072 36132 ft 369 kts 275°
2026-05-03 23:30 27.69764 -85.03647 36131 ft 369 kts 275°
2026-05-03 23:30 27.70652 -85.09346 36128 ft 369 kts 275°
2026-05-03 23:31 27.71540 -85.14990 36138 ft 369 kts 275°
2026-05-03 23:31 27.72428 -85.20699 36129 ft 368 kts 275°
2026-05-03 23:32 27.73294 -85.26346 36139 ft 368 kts 275°
2026-05-03 23:32 27.74379 -85.30764 36025 ft 386 kts 296°
2026-05-03 23:33 27.77918 -85.36532 36110 ft 373 kts 283°
2026-05-03 23:33 27.79397 -85.42106 36112 ft 371 kts 280°
2026-05-03 23:34 27.81070 -85.47607 36118 ft 376 kts 285°
2026-05-03 23:34 27.83235 -85.53026 36127 ft 379 kts 288°
2026-05-03 23:35 27.85556 -85.58384 36137 ft 380 kts 288°
2026-05-03 23:35 27.87749 -85.63513 36137 ft 379 kts 288°
2026-05-03 23:36 27.89607 -85.67989 36144 ft 378 kts 287°
2026-05-03 23:36 27.91816 -85.73381 36147 ft 378 kts 287°
2026-05-03 23:37 27.94028 -85.78764 36146 ft 378 kts 287°
2026-05-03 23:37 27.96245 -85.84143 36147 ft 377 kts 287°
2026-05-03 23:38 27.98471 -85.89523 36146 ft 377 kts 288°
2026-05-03 23:38 28.00685 -85.94895 36147 ft 377 kts 287°
2026-05-03 23:39 28.03095 -86.00770 36151 ft 377 kts 288°
2026-05-03 23:39 28.04944 -86.05281 36146 ft 376 kts 287°
2026-05-03 23:40 28.05976 -86.07806 35791 ft 375 kts 288°
2026-05-03 23:40 28.06906 -86.10083 35227 ft 376 kts 288°
2026-05-03 23:40 28.07985 -86.12728 34571 ft 378 kts 288°
2026-05-03 23:40 28.09090 -86.15432 34239 ft 379 kts 288°
2026-05-03 23:41 28.10200 -86.18151 34095 ft 382 kts 288°
2026-05-03 23:41 28.11316 -86.20889 34125 ft 383 kts 288°
2026-05-03 23:41 28.13552 -86.26381 34125 ft 384 kts 288°
2026-05-03 23:42 28.15770 -86.31813 34128 ft 384 kts 289°
2026-05-03 23:42 28.17914 -86.37060 34129 ft 384 kts 289°
2026-05-03 23:43 28.20152 -86.42565 34133 ft 384 kts 289°
2026-05-03 23:43 28.22331 -86.47953 34022 ft 382 kts 289°
2026-05-03 23:44 28.23466 -86.50753 33267 ft 382 kts 289°
2026-05-03 23:44 28.24562 -86.53458 32506 ft 384 kts 289°
2026-05-03 23:44 28.25661 -86.56176 32222 ft 386 kts 289°
2026-05-03 23:44 28.26784 -86.58952 32100 ft 388 kts 290°
2026-05-03 23:45 28.29044 -86.64534 32138 ft 390 kts 290°
2026-05-03 23:45 28.31256 -86.70044 32139 ft 389 kts 288°
2026-05-03 23:46 28.32983 -86.75745 32131 ft 387 kts 284°
2026-05-03 23:46 28.34631 -86.81370 32144 ft 387 kts 285°
2026-05-03 23:47 28.36294 -86.87051 32137 ft 387 kts 285°
2026-05-03 23:47 28.37992 -86.92860 32137 ft 387 kts 285°
2026-05-03 23:48 28.39682 -86.98667 32137 ft 387 kts 285°
2026-05-03 23:48 28.41368 -87.04471 32136 ft 387 kts 285°
2026-05-03 23:49 28.42964 -87.09958 32138 ft 387 kts 285°
2026-05-03 23:49 28.44623 -87.15705 32138 ft 387 kts 285°
2026-05-03 23:50 28.46191 -87.21130 32140 ft 387 kts 285°
2026-05-03 23:50 28.47874 -87.26941 32140 ft 387 kts 285°
2026-05-03 23:51 28.49555 -87.32757 32140 ft 387 kts 285°
2026-05-03 23:51 28.51223 -87.38534 32143 ft 387 kts 285°
2026-05-03 23:52 28.52825 -87.44109 32140 ft 387 kts 285°
2026-05-03 23:52 28.54471 -87.49847 32138 ft 387 kts 285°
2026-05-03 23:53 28.56134 -87.55674 32138 ft 387 kts 285°
2026-05-03 23:53 28.57779 -87.61434 32140 ft 387 kts 285°
2026-05-03 23:54 28.59443 -87.67254 32144 ft 387 kts 285°
2026-05-03 23:54 28.61055 -87.72927 32145 ft 387 kts 285°
2026-05-03 23:55 28.62669 -87.78614 32144 ft 387 kts 285°
2026-05-03 23:55 28.64320 -87.84437 32146 ft 387 kts 285°
2026-05-03 23:56 28.65972 -87.90267 32143 ft 387 kts 286°
2026-05-03 23:56 28.67552 -87.95851 32144 ft 387 kts 286°
2026-05-03 23:57 28.69126 -88.01423 32147 ft 387 kts 286°
2026-05-03 23:57 28.70490 -88.06261 32148 ft 387 kts 286°
2026-05-03 23:58 28.72064 -88.11873 32147 ft 386 kts 286°
2026-05-03 23:58 28.73629 -88.17468 32144 ft 386 kts 283°
2026-05-03 23:59 28.74946 -88.23243 32149 ft 386 kts 286°
2026-05-03 23:59 28.76594 -88.28635 32149 ft 386 kts 288°
2026-05-04 00:00 28.78356 -88.34367 32146 ft 386 kts 287°
2026-05-04 00:00 28.79955 -88.39935 32150 ft 386 kts 286°
2026-05-04 00:01 28.81559 -88.45773 32148 ft 385 kts 285°
2026-05-04 00:01 28.83045 -88.51195 32153 ft 385 kts 286°
2026-05-04 00:02 28.83813 -88.53963 32153 ft 385 kts 287°
2026-05-04 00:02 28.84465 -88.56507 32178 ft 385 kts 286°
2026-05-04 00:03 28.86049 -88.62222 32149 ft 385 kts 287°
2026-05-04 00:03 28.87826 -88.68004 32154 ft 386 kts 292°
2026-05-04 00:04 28.90572 -88.73135 32152 ft 391 kts 304°
2026-05-04 00:04 28.91525 -88.74426 32152 ft 392 kts 307°
2026-05-04 00:05 28.92382 -88.75276 32060 ft 395 kts 340°
2026-05-04 00:05 28.93742 -88.75677 31922 ft 398 kts 340°
2026-05-04 00:05 28.94454 -88.75800 32235 ft 375 kts 338°
2026-05-04 00:06 28.95935 -88.76218 33427 ft 342 kts 334°
2026-05-04 00:06 28.97837 -88.76750 33758 ft 349 kts 336°
2026-05-04 00:06 28.99535 -88.77448 33630 ft 345 kts 322°
2026-05-04 00:06 29.01375 -88.79050 33684 ft 335 kts 303°
2026-05-04 00:07 29.02415 -88.81213 33765 ft 336 kts 289°
2026-05-04 00:07 29.03222 -88.83623 33755 ft 345 kts 289°
2026-05-04 00:07 29.04138 -88.86382 33765 ft 353 kts 289°
2026-05-04 00:08 29.05212 -88.91732 32954 ft 368 kts 290°
2026-05-04 00:08 29.05993 -88.93518 32203 ft 377 kts 300°
2026-05-04 00:08 29.08251 -88.96679 30881 ft 389 kts 307°
2026-05-04 00:09 29.09999 -88.99001 29957 ft 393 kts 307°
2026-05-04 00:09 29.11746 -89.01330 28942 ft 396 kts 307°
2026-05-04 00:09 29.13256 -89.03346 28042 ft 399 kts 307°
2026-05-04 00:09 29.15072 -89.05768 26938 ft 403 kts 307°
2026-05-04 00:10 29.16743 -89.08003 25984 ft 406 kts 307°
2026-05-04 00:10 29.18454 -89.10291 25269 ft 402 kts 308°
2026-05-04 00:10 29.20286 -89.12738 24491 ft 399 kts 308°
2026-05-04 00:10 29.22045 -89.15092 23760 ft 396 kts 308°
2026-05-04 00:11 29.23751 -89.17376 22941 ft 394 kts 308°
2026-05-04 00:11 29.25463 -89.19673 22104 ft 391 kts 308°
2026-05-04 00:11 29.27084 -89.21846 21327 ft 390 kts 309°
2026-05-04 00:11 29.28607 -89.23890 20590 ft 388 kts 309°
2026-05-04 00:12 29.30241 -89.26081 19842 ft 387 kts 309°
2026-05-04 00:12 29.32013 -89.28456 19064 ft 386 kts 310°
2026-05-04 00:12 29.33760 -89.30797 18301 ft 386 kts 310°
2026-05-04 00:12 29.35494 -89.33131 17492 ft 384 kts 310°
2026-05-04 00:13 29.37223 -89.35465 16757 ft 382 kts 310°
2026-05-04 00:13 29.38937 -89.37778 16066 ft 380 kts 310°
2026-05-04 00:13 29.40645 -89.40079 15376 ft 378 kts 310°
2026-05-04 00:13 29.42215 -89.42194 14740 ft 376 kts 310°
2026-05-04 00:14 29.43921 -89.44489 14065 ft 374 kts 310°
2026-05-04 00:14 29.45546 -89.46676 13355 ft 372 kts 310°
2026-05-04 00:14 29.47219 -89.48935 12618 ft 370 kts 310°
2026-05-04 00:14 29.48878 -89.51176 12149 ft 369 kts 310°
2026-05-04 00:15 29.50543 -89.53426 11998 ft 370 kts 310°
2026-05-04 00:15 29.52213 -89.55686 12018 ft 371 kts 310°
2026-05-04 00:15 29.53532 -89.57469 12017 ft 371 kts 310°
2026-05-04 00:15 29.53802 -89.57835 12018 ft 371 kts 310°
2026-05-04 00:16 29.55313 -89.59888 12017 ft 372 kts 310°
2026-05-04 00:16 29.56978 -89.62142 12016 ft 372 kts 310°
2026-05-04 00:16 29.58513 -89.64219 12019 ft 372 kts 310°
2026-05-04 00:16 29.60201 -89.66500 12024 ft 372 kts 310°
2026-05-04 00:17 29.61311 -89.68000 12022 ft 372 kts 310°
2026-05-04 00:17 29.63404 -89.70837 12015 ft 372 kts 310°
2026-05-04 00:17 29.64453 -89.72260 12018 ft 372 kts 310°
2026-05-04 00:17 29.66593 -89.75167 11932 ft 369 kts 310°
2026-05-04 00:18 29.68196 -89.77349 11259 ft 365 kts 310°
2026-05-04 00:18 29.69828 -89.79569 10569 ft 363 kts 310°
2026-05-04 00:18 29.71272 -89.81535 10175 ft 362 kts 310°
2026-05-04 00:18 29.72737 -89.83532 10032 ft 363 kts 310°
2026-05-04 00:19 29.74308 -89.85675 10006 ft 342 kts 310°
2026-05-04 00:19 29.75701 -89.87575 10017 ft 324 kts 311°
2026-05-04 00:19 29.77073 -89.89445 10017 ft 307 kts 311°
2026-05-04 00:19 29.78417 -89.91278 10017 ft 291 kts 311°
2026-05-04 00:20 29.79641 -89.92949 10018 ft 282 kts 311°
2026-05-04 00:20 29.80790 -89.94516 9984 ft 280 kts 311°
2026-05-04 00:20 29.82002 -89.96168 9667 ft 278 kts 311°
2026-05-04 00:20 29.82739 -89.97173 9455 ft 277 kts 311°
2026-05-04 00:21 29.84174 -89.99146 9053 ft 276 kts 309°
2026-05-04 00:21 29.84926 -90.00375 8814 ft 275 kts 303°
2026-05-04 00:21 29.85788 -90.02196 8222 ft 274 kts 295°
2026-05-04 00:21 29.86507 -90.04197 7625 ft 273 kts 295°
2026-05-04 00:22 29.87259 -90.06157 7090 ft 272 kts 296°
2026-05-04 00:22 29.87991 -90.07987 6608 ft 271 kts 296°
2026-05-04 00:22 29.88770 -90.09916 6048 ft 269 kts 296°
2026-05-04 00:22 29.89518 -90.11778 5513 ft 268 kts 296°
2026-05-04 00:23 29.90243 -90.13595 5109 ft 263 kts 296°
2026-05-04 00:23 29.90928 -90.15324 5018 ft 265 kts 296°
2026-05-04 00:23 29.91612 -90.17050 5016 ft 266 kts 296°
2026-05-04 00:23 29.92352 -90.18918 5020 ft 268 kts 296°
2026-05-04 00:24 29.93090 -90.20789 4897 ft 265 kts 296°
2026-05-04 00:24 29.93847 -90.22716 4576 ft 264 kts 295°
2026-05-04 00:24 29.94533 -90.24469 4312 ft 263 kts 295°
2026-05-04 00:24 29.95190 -90.26143 4088 ft 261 kts 295°
2026-05-04 00:25 29.95931 -90.28034 3996 ft 260 kts 295°
2026-05-04 00:25 29.96622 -90.29813 4018 ft 262 kts 295°
2026-05-04 00:25 29.97368 -90.31728 4018 ft 262 kts 295°
2026-05-04 00:25 29.98081 -90.33551 4019 ft 262 kts 295°
2026-05-04 00:26 29.98832 -90.35474 4005 ft 262 kts 295°
2026-05-04 00:26 29.99581 -90.37385 4019 ft 262 kts 295°
2026-05-04 00:26 30.00332 -90.39298 4019 ft 262 kts 295°
2026-05-04 00:26 30.01040 -90.41109 4017 ft 262 kts 295°
2026-05-04 00:27 30.01666 -90.42717 4017 ft 262 kts 295°
2026-05-04 00:27 30.02398 -90.44597 4021 ft 262 kts 295°
2026-05-04 00:27 30.03128 -90.46472 4004 ft 262 kts 295°
2026-05-04 00:27 30.03850 -90.48331 4018 ft 262 kts 295°
2026-05-04 00:28 30.04571 -90.50188 4016 ft 249 kts 295°
2026-05-04 00:28 30.05039 -90.51395 4015 ft 239 kts 295°
2026-05-04 00:28 30.05764 -90.53069 4006 ft 225 kts 308°
2026-05-04 00:28 30.06961 -90.54032 4019 ft 218 kts 346°
2026-05-04 00:29 30.08454 -90.53900 4020 ft 218 kts 26°
2026-05-04 00:29 30.09523 -90.52701 4021 ft 220 kts 65°
2026-05-04 00:29 30.09683 -90.50972 4018 ft 222 kts 105°
2026-05-04 00:29 30.08874 -90.49494 3839 ft 219 kts 135°
2026-05-04 00:30 30.07864 -90.48357 3478 ft 220 kts 135°
2026-05-04 00:30 30.06785 -90.47131 3205 ft 216 kts 135°
2026-05-04 00:30 30.05810 -90.46024 3017 ft 211 kts 135°
2026-05-04 00:30 30.04840 -90.44925 2786 ft 209 kts 135°
2026-05-04 00:31 30.03856 -90.43753 2564 ft 200 kts 127°
2026-05-04 00:31 30.03196 -90.42397 2343 ft 189 kts 111°
2026-05-04 00:31 30.02783 -90.41034 2141 ft 167 kts 106°
2026-05-04 00:31 30.02490 -90.39896 1949 ft 151 kts 105°
2026-05-04 00:32 30.02239 -90.38875 1786 ft 145 kts 105°
2026-05-04 00:32 30.01991 -90.37852 1623 ft 142 kts 105°
2026-05-04 00:32 30.01729 -90.36770 1448 ft 145 kts 105°
2026-05-04 00:32 30.01465 -90.35673 1277 ft 145 kts 105°
2026-05-04 00:33 30.01208 -90.34603 1103 ft 145 kts 105°
2026-05-04 00:33 30.00683 -90.32374 785 ft 144 kts 104°
2026-05-04 00:33 30.00427 -90.31291 635 ft 145 kts 106°
2026-05-04 00:34 30.00165 -90.30196 405 ft 143 kts 105°
2026-05-04 00:34 29.99897 -90.29090 231 ft 143 kts 106°
2026-05-04 00:34 29.99677 -90.28205 91 ft 142 kts 106°
2026-05-04 00:34 29.99434 -90.27236 8 ft 136 kts 105°
2026-05-04 00:35 29.99228 -90.26435 9 ft 71 kts 108°
2026-05-04 00:35 29.99144 -90.26043 11 ft 43 kts 104°
2026-05-04 00:35 29.99078 -90.25738 11 ft 34 kts 94°
2026-05-04 00:35 29.99149 -90.25636 11 ft 10 kts
2026-05-04 00:36 29.99177 -90.25629 11 ft 0 kts 13°
2026-05-04 00:36 29.99177 -90.25628 6 ft 1 kts 13°
2026-05-04 00:39 29.99190 -90.25621 7 ft 12 kts 34°
2026-05-04 00:40 29.99209 -90.25603 5 ft 2 kts 39°
2026-05-04 00:40 29.99317 -90.25561 6 ft 30 kts 357°
2026-05-04 00:40 29.99417 -90.25554 6 ft 6 kts 340°
2026-05-04 00:40 29.99431 -90.25572 6 ft 0 kts 308°
2026-05-04 00:41 29.99431 -90.25578 6 ft 3 kts 278°
2026-05-04 00:41 29.99432 -90.25595 7 ft 2 kts 270°
2026-05-04 00:41 29.99432 -90.25607 7 ft 1 kts 271°
2026-05-04 00:41 29.99432 -90.25616 7 ft 0 kts 270°
2026-05-04 00:42 29.99432 -90.25618 7 ft 0 kts 271°